Tracking 25198 objects as of 16-Jan-2022
HD Live streaming from Space Station
objects crossing your sky now

THOR ABLESTAR DEB

Track THOR ABLESTAR DEB now!
10-day predictions


NORAD ID: 13514
Int'l Code: 1961-015KX
Perigee: 894.8 km
Apogee: 1,266.2 km
Inclination: 66.7 °
Period: 106.7 minutes
Semi major axis: 7451 km
RCS: 0.0184 m2 (small)
Launch date: June 29, 1961
Source: United States (US)
Launch site: AIR FORCE EASTERN TEST RANGE (AFETR)

Note: This is SATELLITE DEBRIS
aabbcc
Your satellite tracking list
Your tracking list is empty




NASA's NSSDC Master Catalog

Two Line Element Set (TLE):
1 13514U 61015KX  22016.04518678  .00000124  00000-0  25225-3 0  9993
2 13514  66.7159 119.5684 0249200 334.7392 200.8489 13.49702384 47049
Source of the keplerian elements: AFSPC